DH0GMA Weather Reports


Display with metric or nautical units.
time (UTC)temp
F
wind
direction
speed
MPH
gust
MPH
rain 1hr
in
rain 24hr
in
rain mn
in
humidity
%
barometer
mb
20260831071745 65 258 1.0 7.0 0.00 0.13 0.13 86 1016.3
20260831070745 65 279 2.0 8.0 0.00 0.13 0.13 87 1016.1
20260831065745 65 110 1.0 6.0 0.00 0.13 0.13 89 1016.0
20260831064745 64 294 2.0 8.0 0.00 0.13 0.13 90 1015.9
20260831063745 63 242 2.0 7.0 0.00 0.13 0.13 92 1015.9
20260831062745 63 242 1.0 4.0 0.00 0.13 0.13 92 1015.7
20260831061745 63 243 3.0 7.0 0.00 0.13 0.13 93 1015.7
20260831060746 62 264 3.0 9.0 0.00 0.13 0.13 94 1015.6
20260831055746 62 145 3.0 8.0 0.00 0.13 0.13 94 1015.6
20260831054746 61 136 2.0 6.0 0.00 0.13 0.13 94 1015.7
20260831053746 61 251 3.0 7.0 0.00 0.13 0.13 95 1015.6
20260831052746 61 260 2.0 6.0 0.00 0.13 0.13 94 1015.5
20260831051746 60 237 3.0 5.0 0.00 0.13 0.13 94 1015.4
20260831050746 60 245 2.0 5.0 0.00 0.13 0.13 95 1015.4
20260831045746 60 227 1.0 4.0 0.00 0.13 0.13 95 1015.2
20260831044745 60 209 0.0 2.0 0.00 0.13 0.13 94 1015.3
20260831043745 60 214 0.0 0.0 0.00 0.13 0.13 94 1015.3
20260831042745 60 208 0.0 3.0 0.00 0.13 0.13 94 1015.3
20260831041745 60 141 1.0 4.0 0.00 0.13 0.13 94 1015.2
20260831040745 60 194 3.0 6.0 0.00 0.13 0.13 94 1014.9
20260831035745 60 125 2.0 5.0 0.00 0.13 0.13 94 1015.0
20260831034745 60 154 2.0 7.0 0.00 0.13 0.13 94 1014.9
20260831033744 60 241 3.0 5.0 0.00 0.13 0.13 94 1015.0
20260831032746 60 215 3.0 5.0 0.00 0.13 0.13 94 1014.8
20260831031746 60 133 3.0 6.0 0.00 0.13 0.13 94 1014.7
20260831030746 60 197 3.0 5.0 0.00 0.13 0.13 93 1014.6
20260831025746 60 177 2.0 7.0 0.01 0.13 0.13 93 1014.6
20260831024746 61 166 3.0 8.0 0.03 0.13 0.13 93 1014.6
20260831023745 61 174 1.0 6.0 0.06 0.13 0.13 93 1014.8
20260831022745 61 204 1.0 8.0 0.08 0.13 0.13 93 1014.9
20260831021745 61 190 1.0 3.0 0.08 0.13 0.13 93 1014.8
20260831020745 61 153 1.0 6.0 0.13 0.13 0.13 93 1014.9
20260831015745 61 173 3.0 6.0 0.12 0.12 0.12 92 1015.0
20260831014745 62 181 0.0 8.0 0.09 0.09 0.09 92 1015.2
20260831013745 62 252 2.0 9.0 0.07 0.07 0.07 91 1015.3
20260831012744 62 216 3.0 10.0 0.05 0.05 0.05 92 1015.1
20260831011746 62 237 2.0 5.0 0.05 0.05 0.05 92 1014.9
20260831010746 62 294 1.0 4.0 0.00 0.00 0.00 92 1014.0
20260831005746 61 9 1.0 7.0 0.00 0.00 0.00 92 1013.6
20260831004746 61 48 0.0 0.0 0.00 0.00 0.00 91 1013.0
20260831003746 61 48 0.0 0.0 0.00 0.00 0.00 91 1013.0
20260831002746 61 48 0.0 0.0 0.00 0.00 0.00 90 1013.2
20260831001745 61 48 0.0 0.0 0.00 0.00 0.00 90 1013.1
20260831000745 62 48 0.0 0.0 0.00 0.00 0.00 90 1013.2
20260830235745 62 48 0.0 0.0 0.00 0.00 0.00 90 1013.2
20260830234745 62 45 0.0 0.0 0.00 0.00 0.00 89 1013.1
20260830233745 62 45 0.0 0.0 0.00 0.00 0.00 88 1013.1
20260830232745 62 45 0.0 0.0 0.00 0.00 0.00 88 1013.0
20260830231744 63 45 0.0 0.0 0.00 0.00 0.00 88 1013.2
20260830230744 63 45 0.0 0.0 0.00 0.00 0.00 88 1013.2
20260830225746 63 45 0.0 0.0 0.00 0.00 0.00 88 1013.5
20260830224746 64 45 0.0 0.0 0.00 0.00 0.00 88 1013.6
20260830223746 64 45 0.0 0.0 0.00 0.00 0.00 87 1013.6
20260830222746 64 45 0.0 0.0 0.00 0.00 0.00 86 1013.8
20260830221746 64 45 0.0 0.0 0.00 0.00 0.00 86 1013.9
20260830220746 65 45 0.0 0.0 0.00 0.00 0.00 85 1013.9
20260830215745 65 45 0.0 0.0 0.00 0.00 0.00 85 1013.8
20260830214745 65 45 0.0 0.0 0.00 0.00 0.00 85 1013.9
20260830213745 65 45 0.0 0.0 0.00 0.00 0.00 85 1014.0
20260830212745 65 45 0.0 0.0 0.00 0.00 0.00 83 1013.9
20260830211745 66 45 0.0 0.0 0.00 0.00 0.00 83 1014.2
20260830210744 66 45 0.0 0.0 0.00 0.00 0.00 82 1014.1
20260830205744 67 45 0.0 0.0 0.00 0.00 0.00 82 1014.1
20260830204746 67 45 0.0 0.0 0.00 0.00 0.00 81 1013.9
20260830203746 67 45 0.0 0.0 0.00 0.00 0.00 80 1014.0
20260830202746 68 45 0.0 0.0 0.00 0.00 0.00 79 1014.1
20260830201746 68 45 0.0 1.0 0.00 0.00 0.00 79 1014.2
20260830200746 68 45 0.0 0.0 0.00 0.00 0.00 78 1014.1
20260830195746 69 45 1.0 2.0 0.00 0.00 0.00 78 1014.2
20260830194745 69 45 0.0 2.0 0.00 0.00 0.00 78 1014.1
20260830193745 69 45 0.0 3.0 0.00 0.00 0.00 78 1014.1
20260830192745 69 45 0.0 0.0 0.00 0.00 0.00 77 1014.3
20260830191745 70 45 1.0 2.0 0.00 0.00 0.00 76 1014.4
20260830190745 70 45 0.0 2.0 0.00 0.00 0.00 76 1014.3
20260830185745 71 45 0.0 2.0 0.00 0.00 0.00 76 1014.1
20260830184745 71 45 1.0 5.0 0.00 0.00 0.00 75 1014.2
20260830183744 72 45 0.0 2.0 0.00 0.00 0.00 74 1014.2
20260830182744 72 44 0.0 3.0 0.00 0.00 0.00 73 1014.1
20260830181744 72 45 0.0 2.0 0.00 0.00 0.00 72 1014.0
20260830180744 73 45 1.0 4.0 0.00 0.00 0.00 71 1014.0
20260830175746 74 33 1.0 2.0 0.00 0.00 0.00 70 1014.0
20260830174746 75 33 0.0 3.0 0.00 0.00 0.00 68 1013.9
20260830173746 76 66 1.0 3.0 0.00 0.00 0.00 65 1013.7
20260830172745 78 299 1.0 2.0 0.00 0.00 0.00 60 1013.8
20260830171745 78 241 1.0 3.0 0.00 0.00 0.00 57 1013.7
20260830170745 80 194 1.0 3.0 0.00 0.00 0.00 57 1013.8
20260830165746 80 255 1.0 5.0 0.00 0.00 0.00 56 1013.7
20260830164746 80 237 1.0 5.0 0.00 0.00 0.00 55 1013.6
20260830163746 80 306 2.0 7.0 0.00 0.00 0.00 55 1013.7
20260830162745 79 282 1.0 8.0 0.00 0.00 0.00 58 1013.7
20260830161745 79 227 3.0 8.0 0.00 0.00 0.00 56 1013.7
20260830160745 80 210 2.0 6.0 0.00 0.00 0.00 56 1013.8
20260830155745 80 122 2.0 9.0 0.00 0.00 0.00 56 1013.7
20260830154746 80 142 2.0 5.0 0.00 0.00 0.00 57 1013.7
20260830153746 79 180 3.0 12.0 0.00 0.00 0.00 59 1013.7
20260830152746 78 165 1.0 8.0 0.00 0.00 0.00 58 1013.7
20260830151746 80 145 2.0 6.0 0.00 0.00 0.00 57 1013.8
20260830150745 80 232 3.0 8.0 0.00 0.00 0.00 56 1013.9
20260830145745 80 173 2.0 11.0 0.00 0.00 0.00 57 1013.7
20260830144745 80 222 0.0 4.0 0.00 0.00 0.00 58 1014.0
20260830143745 80 259 1.0 9.0 0.00 0.00 0.00 58 1014.0
20260830142745 80 237 1.0 4.0 0.00 0.00 0.00 58 1013.9
20260830141745 80 137 3.0 8.0 0.00 0.00 0.00 58 1014.1
20260830140745 80 221 2.0 8.0 0.00 0.00 0.00 58 1014.0
20260830135745 80 181 5.0 9.0 0.00 0.00 0.00 56 1014.1
20260830134745 80 180 2.0 6.0 0.00 0.00 0.00 58 1014.1
20260830133744 80 140 3.0 10.0 0.00 0.00 0.00 57 1014.1
20260830132744 80 277 2.0 6.0 0.00 0.00 0.00 58 1014.2
20260830131744 80 246 2.0 4.0 0.00 0.00 0.00 60 1014.4
20260830130744 80 321 2.0 8.0 0.00 0.00 0.00 58 1014.4
20260830125744 80 181 1.0 9.0 0.00 0.00 0.00 58 1014.4
20260830124744 80 194 2.0 6.0 0.00 0.00 0.00 59 1014.6
20260830123744 79 218 4.0 8.0 0.00 0.00 0.00 60 1014.7
20260830122746 78 166 3.0 8.0 0.00 0.00 0.00 60 1014.7
20260830121748 78 176 4.0 12.0 0.00 0.00 0.00 61 1014.6
20260830120747 78 165 3.0 9.0 0.00 0.00 0.00 61 1014.9
20260830115747 77 227 1.0 7.0 0.00 0.00 0.00 63 1014.9
20260830114747 77 341 4.0 8.0 0.00 0.00 0.00 61 1014.8
20260830113747 77 161 2.0 8.0 0.00 0.00 0.00 62 1015.0
20260830112747 76 285 2.0 8.0 0.00 0.00 0.00 63 1015.1
20260830111747 76 254 2.0 8.0 0.00 0.00 0.00 63 1015.3
20260830110746 76 227 2.0 5.0 0.00 0.00 0.00 63 1015.3
20260830105747 76 178 2.0 5.0 0.00 0.00 0.00 64 1015.4
20260830104746 76 141 4.0 9.0 0.00 0.00 0.00 61 1015.4
20260830103746 76 299 1.0 5.0 0.00 0.00 0.00 66 1015.5
20260830102746 75 267 3.0 8.0 0.00 0.00 0.00 66 1015.5
20260830101746 74 197 4.0 6.0 0.00 0.00 0.00 67 1015.7
20260830100746 73 197 1.0 6.0 0.00 0.00 0.00 66 1015.8
20260830095747 74 232 2.0 8.0 0.00 0.00 0.00 66 1016.0
20260830094747 74 269 3.0 9.0 0.00 0.00 0.00 66 1016.1
20260830093747 74 312 3.0 6.0 0.00 0.00 0.00 68 1015.9
20260830092747 73 285 2.0 8.0 0.00 0.00 0.00 68 1016.0
20260830091746 74 275 3.0 5.0 0.00 0.00 0.00 67 1016.1
20260830090746 73 246 2.0 7.0 0.00 0.00 0.00 69 1016.0
20260830085746 73 237 2.0 7.0 0.00 0.00 0.00 69 1016.0
20260830084746 72 174 2.0 9.0 0.00 0.00 0.00 69 1016.1
20260830083747 72 168 3.0 8.0 0.00 0.00 0.00 70 1016.1
20260830082747 72 180 3.0 9.0 0.00 0.00 0.00 70 1016.0
20260830081747 72 262 2.0 9.0 0.00 0.00 0.00 70 1016.1
20260830080747 71 285 1.0 8.0 0.00 0.00 0.00 71 1016.3
20260830075747 70 259 2.0 7.0 0.00 0.00 0.00 72 1016.1
20260830074747 70 182 2.0 8.0 0.00 0.00 0.00 73 1016.2
20260830073747 69 158 2.0 6.0 0.00 0.00 0.00 74 1016.2
20260830072746 68 139 4.0 9.0 0.00 0.00 0.00 74 1016.2